C/2022 E3 ( ZTF )

Japanese version
Home page
Updated on September 2, 2023

---------------------------------------------------------------------

* Profile

Discovery Date March 2, 2022
Magnitude 17.2 mag
Discoverer Zwicky Transient Facility (ZTF)

* Pictures

* Orbital Elements

Epoch 2023 Feb. 25.0 TT = JDT 2460000.5
T 2023 Jan. 12.78521 TT                                 Rudenko
q   1.1122478            (2000.0)            P               Q
z  -0.0002900      Peri.  145.81573     -0.60064647     -0.07340477
 +/-0.0000001      Node   302.55566     +0.33753010     +0.87940745
e   1.0003225      Incl.  109.16851     +0.72477393     -0.47037674
>From 7884 observations 2021 July 10-2023 Apr. 24, mean residual 0".6.

* Finding Charts

* Magnitudes Graph

        m1 = -2.0 + 5 log d + 25   log r  [    ,-288]  (             - 2022 Mar. 30)
        m1 =  7.0 + 5 log d + 10.0 log r  [-288,    ]  (2022 Mar. 30 -             )

---------------------------------------------------------------------

The orbital elements are published on M.P.E.C. 2023-N16.
The charts are made with StellaNavigator Ver.10 (AstroArts).
The magnitudes graphs are made with Comet for Windows.

---------------------------------------------------------------------

Copyright(C) Seiichi Yoshida (comet@aerith.net). All rights reserved.